KC0NAX Weather Reports


time (UTC)temp
C
wind
direction
speed
KPH
gust
KPH
rain 1hr
cm
rain 24hr
cm
rain mn
cm
humidity
%
barometer
mb
20260510190848 22 64 8.0 12.9 0.00 0.00 0.00 37 1019.9
20260510190349 22 74 4.8 9.7 0.00 0.00 0.00 37 1019.9
20260510185849 21 18 6.4 9.7 0.00 0.00 0.00 39 1019.9
20260510185348 22 279 6.4 9.7 0.00 0.00 0.00 40 1019.9
20260510184848 22 72 6.4 12.9 0.00 0.00 0.00 39 1020.0
20260510184348 22 229 3.2 4.8 0.00 0.00 0.00 39 1020.1
20260510183848 22 86 4.8 11.3 0.00 0.00 0.00 38 1020.0
20260510183348 22 230 4.8 8.0 0.00 0.00 0.00 38 1019.9
20260510182849 22 128 6.4 12.9 0.00 0.00 0.00 39 1019.8
20260510182348 22 58 4.8 11.3 0.00 0.00 0.00 39 1019.8
20260510181848 22 37 6.4 14.5 0.00 0.00 0.00 38 1019.7
20260510181349 22 281 3.2 8.0 0.00 0.00 0.00 40 1019.5
20260510180848 21 13 3.2 8.0 0.00 0.00 0.00 40 1019.7
20260510180348 21 123 3.2 4.8 0.00 0.00 0.00 39 1019.7
20260510175849 21 149 3.2 4.8 0.00 0.00 0.00 41 1019.7
20260510175349 21 69 6.4 8.0 0.00 0.00 0.00 40 1019.7
20260510174849 21 291 3.2 9.7 0.00 0.00 0.00 39 1019.5
20260510174348 21 122 11.3 16.1 0.00 0.00 0.00 38 1019.4
20260510173850 21 52 6.4 9.7 0.00 0.00 0.00 38 1019.4
20260510173348 21 88 3.2 6.4 0.00 0.00 0.00 40 1019.4
20260510172849 21 116 6.4 12.9 0.00 0.00 0.00 41 1019.4
20260510172348 21 82 4.8 9.7 0.00 0.00 0.00 39 1019.3
20260510171848 21 114 8.0 17.7 0.00 0.00 0.00 40 1019.2
20260510171351 21 127 4.8 8.0 0.00 0.00 0.00 42 1019.3
20260510170848 20 48 4.8 11.3 0.00 0.00 0.00 43 1019.3
20260510170349 20 76 6.4 11.3 0.00 0.00 0.00 42 1019.4
20260510165850 20 78 8.0 14.5 0.00 0.00 0.00 40 1019.3
20260510165349 20 83 6.4 12.9 0.00 0.00 0.00 40 1019.3
20260510164848 20 15 4.8 17.7 0.00 0.00 0.00 43 1019.3
20260510164349 20 107 4.8 14.5 0.00 0.00 0.00 41 1019.2
20260510163848 20 51 6.4 11.3 0.00 0.00 0.00 43 1019.2
20260510163348 19 94 3.2 8.0 0.00 0.00 0.00 43 1019.2
20260510162848 19 101 6.4 14.5 0.00 0.00 0.00 44 1019.2
20260510162348 19 92 9.7 16.1 0.00 0.00 0.00 45 1019.2
20260510161850 18 100 3.2 6.4 0.00 0.00 0.00 44 1019.2
20260510161348 18 59 8.0 11.3 0.00 0.00 0.00 45 1019.2
20260510160848 18 65 6.4 9.7 0.00 0.00 0.00 44 1019.1
20260510160348 18 43 9.7 17.7 0.00 0.00 0.00 46 1019.0
20260510155848 18 107 9.7 16.1 0.00 0.00 0.00 46 1019.1
20260510155350 18 27 6.4 14.5 0.00 0.00 0.00 47 1019.1
20260510154849 18 79 3.2 9.7 0.00 0.00 0.00 48 1019.0
20260510154348 18 66 4.8 14.5 0.00 0.00 0.00 49 1018.9
20260510153850 18 202 4.8 8.0 0.00 0.00 0.00 50 1018.9
20260510153348 18 60 4.8 6.4 0.00 0.00 0.00 51 1018.8
20260510152851 18 58 6.4 12.9 0.00 0.00 0.00 51 1018.8
20260510152348 18 108 8.0 12.9 0.00 0.00 0.00 52 1018.8
20260510151416 18 77 8.0 14.5 0.00 0.00 0.00 54 1018.9
20260510150849 17 355 4.8 9.7 0.00 0.00 0.00 53 1019.0
20260510150349 17 84 6.4 9.7 0.00 0.00 0.00 55 1019.1
20260510145848 18 93 4.8 8.0 0.00 0.00 0.00 55 1019.1
20260510145349 18 134 3.2 8.0 0.00 0.00 0.00 56 1019.1
20260510144850 18 65 6.4 12.9 0.00 0.00 0.00 55 1019.1
20260510144350 17 130 3.2 6.4 0.00 0.00 0.00 55 1019.1
20260510143849 17 59 8.0 11.3 0.00 0.00 0.00 55 1019.2
20260510143349 17 55 3.2 6.4 0.00 0.00 0.00 56 1019.1
20260510142849 17 136 3.2 8.0 0.00 0.00 0.00 57 1018.9
20260510142349 17 80 6.4 11.3 0.00 0.00 0.00 56 1018.8
20260510141853 17 59 8.0 11.3 0.00 0.00 0.00 57 1018.7
20260510141349 17 44 8.0 14.5 0.00 0.00 0.00 57 1018.7
20260510140848 17 36 6.4 12.9 0.00 0.00 0.00 58 1018.6
20260510140351 17 80 6.4 14.5 0.00 0.00 0.00 60 1018.5
20260510135848 17 65 4.8 6.4 0.00 0.00 0.00 59 1018.4
20260510135348 17 53 4.8 9.7 0.00 0.00 0.00 61 1018.2
20260510134849 17 82 6.4 12.9 0.00 0.00 0.00 60 1018.1
20260510134348 17 91 3.2 6.4 0.00 0.00 0.00 63 1017.9
20260510133849 17 39 3.2 9.7 0.00 0.00 0.00 64 1017.9
20260510133349 17 80 9.7 17.7 0.00 0.00 0.00 65 1017.9
20260510132848 17 83 9.7 12.9 0.00 0.00 0.00 65 1017.8
20260510132350 17 87 3.2 9.7 0.00 0.00 0.00 68 1017.8
20260510131848 17 95 3.2 6.4 0.00 0.00 0.00 70 1017.9
20260510131348 16 31 4.8 12.9 0.00 0.00 0.00 70 1018.0
20260510130848 16 51 3.2 4.8 0.00 0.00 0.00 71 1017.9
20260510130348 16 51 6.4 14.5 0.00 0.00 0.00 72 1017.7
20260510125850 16 52 6.4 12.9 0.00 0.00 0.00 73 1017.6
20260510125348 16 58 3.2 4.8 0.00 0.00 0.00 74 1017.5
20260510124848 16 58 6.4 11.3 0.00 0.00 0.00 74 1017.4
20260510124349 16 77 9.7 14.5 0.00 0.00 0.00 74 1017.3
20260510123850 16 73 9.7 17.7 0.00 0.00 0.00 74 1017.0
20260510123348 15 82 9.7 12.9 0.00 0.00 0.00 75 1016.8
20260510122851 15 70 4.8 9.7 0.00 0.00 0.00 77 1016.8
20260510122348 15 348 3.2 4.8 0.00 0.00 0.00 77 1016.7
20260510121850 15 97 6.4 11.3 0.00 0.00 0.00 77 1016.5
20260510121349 15 80 3.2 9.7 0.00 0.00 0.00 78 1016.5
20260510120850 15 55 4.8 6.4 0.00 0.00 0.00 79 1016.4
20260510120348 15 43 6.4 12.9 0.00 0.00 0.00 79 1016.2
20260510115851 15 34 6.4 14.5 0.00 0.00 0.00 80 1016.3
20260510115348 15 85 3.2 6.4 0.00 0.00 0.00 81 1016.3
20260510114849 15 69 4.8 11.3 0.00 0.00 0.00 81 1016.2
20260510114349 15 55 6.4 12.9 0.00 0.00 0.00 82 1016.2
20260510113848 15 73 3.2 8.0 0.00 0.00 0.00 82 1016.0
20260510113348 15 65 4.8 8.0 0.00 0.00 0.00 82 1015.9
20260510112848 15 70 4.8 8.0 0.00 0.00 0.00 82 1015.8
20260510112349 15 70 4.8 9.7 0.00 0.00 0.00 81 1015.8
20260510111848 15 68 4.8 11.3 0.00 0.00 0.00 81 1015.8
20260510111348 15 51 3.2 6.4 0.00 0.00 0.00 81 1015.7
20260510110848 15 71 4.8 8.0 0.00 0.00 0.00 81 1015.7
20260510110348 15 61 4.8 6.4 0.00 0.00 0.00 82 1015.8
20260510105848 15 46 3.2 4.8 0.00 0.00 0.00 81 1015.7
20260510105348 15 7 1.6 3.2 0.00 0.00 0.00 82 1015.6
20260510104848 15 70 4.8 6.4 0.00 0.00 0.00 82 1015.5
20260510104348 15 51 3.2 6.4 0.00 0.00 0.00 81 1015.3
20260510103848 15 61 1.6 3.2 0.00 0.00 0.00 81 1015.4
20260510103348 15 66 3.2 6.4 0.00 0.00 0.00 81 1015.4
20260510102848 15 58 4.8 8.0 0.00 0.00 0.00 81 1015.5
20260510102348 15 48 1.6 3.2 0.00 0.00 0.00 81 1015.6
20260510101848 14 65 1.6 3.2 0.00 0.00 0.00 82 1015.5
20260510101348 13 42 1.6 3.2 0.00 0.00 0.00 84 1015.4
20260510100850 13 51 3.2 4.8 0.00 0.00 0.00 89 1015.3
20260510100348 12 69 3.2 4.8 0.00 0.00 0.00 91 1015.1
20260510095848 12 70 1.6 4.8 0.00 0.00 0.00 93 1015.1
20260510095348 12 0 1.6 3.2 0.00 0.00 0.00 93 1015.0
20260510094850 12 81 0.0 1.6 0.00 0.00 0.00 92 1014.9
20260510094348 12 0 0.0 0.0 0.00 0.00 0.00 92 1014.8
20260510093848 12 171 0.0 1.6 0.00 0.00 0.00 92 1014.6
20260510093348 12 121 0.0 1.6 0.00 0.00 0.00 92 1014.5
20260510092848 12 31 1.6 1.6 0.00 0.00 0.00 92 1014.3
20260510092348 12 51 1.6 3.2 0.00 0.00 0.00 91 1014.3
20260510091848 12 11 1.6 1.6 0.00 0.00 0.00 91 1014.3
20260510091349 12 85 1.6 3.2 0.00 0.00 0.00 91 1014.3
20260510090848 12 59 1.6 3.2 0.00 0.00 0.00 92 1014.4
20260510090348 12 73 3.2 3.2 0.00 0.00 0.00 92 1014.3
20260510085848 12 43 3.2 3.2 0.00 0.00 0.00 92 1014.5
20260510085348 12 72 0.0 3.2 0.00 0.00 0.00 92 1014.5
20260510084851 12 25 0.0 1.6 0.00 0.00 0.00 92 1014.4
20260510084349 12 342 1.6 1.6 0.00 0.00 0.00 91 1014.2
20260510083851 12 86 1.6 1.6 0.00 0.00 0.00 91 1014.0
20260510083348 12 59 1.6 3.2 0.00 0.00 0.00 91 1013.9
20260510082848 13 69 1.6 3.2 0.00 0.00 0.00 91 1013.9
20260510082348 13 64 1.6 3.2 0.00 0.00 0.00 90 1013.8
20260510081850 13 53 0.0 1.6 0.00 0.00 0.00 90 1013.8
20260510081348 13 48 1.6 3.2 0.00 0.00 0.00 90 1013.9
20260510080848 13 32 0.0 1.6 0.00 0.00 0.00 90 1013.9
20260510080349 13 62 1.6 3.2 0.00 0.00 0.00 90 1013.9
20260510075848 13 65 3.2 4.8 0.00 0.00 0.00 90 1014.1
20260510075349 13 58 1.6 3.2 0.00 0.00 0.00 90 1014.2
20260510074848 13 62 3.2 3.2 0.00 0.00 0.00 90 1014.2
20260510074348 12 85 0.0 1.6 0.00 0.00 0.00 90 1014.2
20260510073848 13 62 0.0 1.6 0.00 0.00 0.00 90 1014.2
20260510073348 13 18 0.0 1.6 0.00 0.00 0.00 89 1014.0
20260510072848 13 61 0.0 1.6 0.00 0.00 0.00 89 1013.9
20260510072348 13 56 1.6 3.2 0.00 0.00 0.00 88 1013.9
20260510071848 12 54 3.2 3.2 0.00 0.00 0.00 88 1013.8
20260510071348 12 56 3.2 3.2 0.00 0.00 0.00 89 1013.9
20260510070852 12 73 1.6 3.2 0.00 0.00 0.00 89 1014.0
20260510070348 12 32 1.6 3.2 0.00 0.00 0.00 88 1014.0
20260510065848 13 61 1.6 3.2 0.00 0.00 0.00 88 1014.1
20260510065348 13 65 0.0 3.2 0.00 0.00 0.00 87 1014.0
20260510064848 13 51 1.6 3.2 0.00 0.00 0.00 87 1013.9
20260510064348 13 60 3.2 3.2 0.00 0.00 0.00 87 1013.9
20260510063848 13 45 3.2 3.2 0.00 0.00 0.00 87 1013.9
20260510063348 13 67 3.2 3.2 0.00 0.00 0.00 87 1013.9
20260510062848 13 64 1.6 3.2 0.00 0.00 0.00 86 1013.9
20260510062348 13 66 1.6 3.2 0.00 0.00 0.00 86 1013.9
20260510061849 13 54 3.2 3.2 0.00 0.00 0.00 85 1013.8
20260510061348 14 66 0.0 3.2 0.00 0.00 0.00 84 1013.7
20260510060848 15 38 1.6 6.4 0.00 0.00 0.00 81 1013.7
20260510060349 15 55 4.8 8.0 0.00 0.00 0.00 81 1013.7
20260510055848 15 48 4.8 6.4 0.00 0.00 0.00 79 1013.8
20260510055348 15 44 4.8 6.4 0.00 0.00 0.00 83 1014.0
20260510054848 15 55 6.4 6.4 0.00 0.00 0.00 83 1014.0
20260510054348 15 49 3.2 4.8 0.00 0.00 0.00 82 1013.9
20260510053849 15 57 4.8 6.4 0.00 0.00 0.00 81 1013.8
20260510053348 15 55 4.8 6.4 0.00 0.00 0.00 79 1013.9
20260510052848 16 56 3.2 4.8 0.00 0.00 0.00 77 1013.9
20260510052348 16 39 1.6 3.2 0.00 0.00 0.00 74 1013.9
20260510051849 16 60 4.8 6.4 0.00 0.00 0.00 73 1014.0
20260510051348 16 60 6.4 6.4 0.00 0.00 0.00 74 1014.0
20260510050848 15 47 3.2 6.4 0.00 0.00 0.00 72 1014.0
20260510050349 14 12 3.2 4.8 0.00 0.00 0.00 77 1013.9
20260510045848 14 29 6.4 6.4 0.00 0.00 0.00 83 1013.4
20260510045348 14 34 3.2 6.4 0.00 0.00 0.00 83 1013.3
20260510044848 13 37 3.2 3.2 0.00 0.00 0.00 84 1013.3
20260510044348 14 59 3.2 4.8 0.00 0.00 0.00 85 1013.2
20260510043849 14 57 1.6 4.8 0.00 0.00 0.00 85 1013.1
20260510043348 14 58 3.2 6.4 0.00 0.00 0.00 85 1013.0
20260510042849 14 50 3.2 4.8 0.00 0.00 0.00 85 1012.9
20260510042349 14 61 1.6 3.2 0.00 0.00 0.00 84 1013.0
20260510041848 14 58 3.2 6.4 0.00 0.00 0.00 86 1012.9
20260510041351 14 51 3.2 6.4 0.00 0.00 0.00 86 1012.9
20260510040850 14 59 3.2 4.8 0.00 0.00 0.00 85 1012.9
20260510040348 14 63 0.0 3.2 0.00 0.00 0.00 85 1012.7
20260510035849 13 49 1.6 3.2 0.00 0.00 0.00 85 1012.6
20260510035348 13 65 0.0 3.2 0.00 0.00 0.00 85 1012.6
20260510034849 13 52 1.6 3.2 0.00 0.00 0.00 84 1012.6
20260510034348 13 49 3.2 4.8 0.00 0.00 0.00 84 1012.6
20260510033406 13 72 0.0 1.6 0.00 0.00 0.00 85 1012.7
20260510032849 13 40 1.6 1.6 0.00 0.00 0.00 83 1012.7
20260510032349 14 70 3.2 6.4 0.00 0.00 0.00 83 1012.7
20260510031849 14 72 1.6 4.8 0.00 0.00 0.00 85 1012.6
20260510031348 14 60 3.2 4.8 0.00 0.00 0.00 84 1012.6
20260510030848 14 62 1.6 4.8 0.00 0.00 0.00 82 1012.6
20260510030349 15 63 3.2 4.8 0.00 0.00 0.00 82 1012.5
20260510025849 15 53 1.6 4.8 0.00 0.00 0.00 81 1012.5
20260510025348 15 45 3.2 6.4 0.00 0.00 0.00 80 1012.5
20260510024848 15 64 3.2 6.4 0.00 0.00 0.00 81 1012.4
20260510024348 15 41 3.2 3.2 0.00 0.00 0.00 78 1012.3
20260510023848 15 57 3.2 4.8 0.00 0.00 0.00 80 1012.1
20260510023348 15 61 3.2 6.4 0.00 0.00 0.00 78 1012.0
20260510022850 15 61 3.2 6.4 0.00 0.00 0.00 80 1011.9
20260510022348 15 55 3.2 4.8 0.00 0.00 0.00 80 1011.8
20260510021851 16 58 3.2 4.8 0.00 0.00 0.00 79 1011.7
20260510021348 16 58 1.6 3.2 0.00 0.00 0.00 78 1011.5
20260510020848 16 57 3.2 4.8 0.00 0.00 0.00 77 1011.4
20260510020349 16 58 3.2 6.4 0.00 0.00 0.00 77 1011.3
20260510015849 16 56 3.2 4.8 0.00 0.00 0.00 76 1011.3
20260510015348 17 58 3.2 4.8 0.00 0.00 0.00 73 1011.2
20260510014848 17 53 1.6 3.2 0.00 0.00 0.00 73 1011.1
20260510014348 17 46 1.6 3.2 0.00 0.00 0.00 69 1011.0
20260510013848 17 66 1.6 3.2 0.00 0.00 0.00 71 1010.9
20260510013349 18 30 1.6 3.2 0.00 0.00 0.00 67 1010.9
20260510012848 18 42 1.6 3.2 0.00 0.00 0.00 66 1010.8
20260510012348 18 3 1.6 3.2 0.00 0.00 0.00 67 1010.8
20260510011849 19 89 1.6 3.2 0.00 0.00 0.00 69 1010.8
20260510011348 19 98 1.6 1.6 0.00 0.00 0.00 64 1010.7
20260510010849 20 58 1.6 3.2 0.00 0.00 0.00 63 1010.7
20260510010349 20 38 3.2 3.2 0.00 0.00 0.00 61 1010.5
20260510005848 21 48 1.6 3.2 0.00 0.00 0.00 62 1010.5
20260510005348 21 43 1.6 3.2 0.00 0.00 0.00 59 1010.4
20260510004848 21 31 1.6 3.2 0.00 0.00 0.00 60 1010.4
20260510004348 22 37 1.6 3.2 0.00 0.00 0.00 60 1010.3
20260510003848 22 20 1.6 3.2 0.00 0.00 0.00 58 1010.2
20260510003348 23 21 3.2 3.2 0.00 0.00 0.00 52 1010.2
20260510002848 24 36 1.6 3.2 0.00 0.00 0.00 47 1010.2
20260510002348 25 34 1.6 3.2 0.00 0.00 0.00 48 1010.3
20260510001848 26 25 1.6 1.6 0.00 0.00 0.00 48 1010.3
20260510001349 26 320 1.6 3.2 0.00 0.00 0.00 43 1010.3
20260510000848 26 244 0.0 1.6 0.00 0.00 0.00 41 1010.3
20260510000349 26 303 1.6 3.2 0.00 0.00 0.00 44 1010.3
20260509235850 26 326 1.6 1.6 0.00 0.00 0.00 47 1010.3
20260509235348 26 315 1.6 3.2 0.00 0.00 0.00 43 1010.3
20260509234848 26 309 1.6 1.6 0.00 0.00 0.00 41 1010.3
20260509234348 27 284 1.6 3.2 0.00 0.00 0.00 39 1010.3
20260509233848 27 281 3.2 4.8 0.00 0.00 0.00 37 1010.2
20260509233348 27 261 3.2 3.2 0.00 0.00 0.00 36 1010.2
20260509232848 27 270 4.8 6.4 0.00 0.00 0.00 35 1010.2
20260509232350 27 217 3.2 3.2 0.00 0.00 0.00 35 1010.2
20260509231848 27 229 1.6 3.2 0.00 0.00 0.00 33 1010.2
20260509231348 27 211 3.2 4.8 0.00 0.00 0.00 33 1010.2
20260509230848 27 239 3.2 4.8 0.00 0.00 0.00 35 1010.2
20260509230348 27 234 1.6 3.2 0.00 0.00 0.00 34 1010.2
20260509225849 26 299 3.2 4.8 0.00 0.00 0.00 33 1010.2
20260509225348 27 320 1.6 3.2 0.00 0.00 0.00 36 1010.2
20260509224849 27 284 3.2 4.8 0.00 0.00 0.00 34 1010.2
20260509224350 27 308 4.8 8.0 0.00 0.00 0.00 28 1010.2
20260509223849 28 303 4.8 4.8 0.00 0.00 0.00 29 1010.2
20260509223348 27 303 4.8 6.4 0.00 0.00 0.00 29 1010.2
20260509222850 27 304 4.8 6.4 0.00 0.00 0.00 32 1010.3
20260509222348 27 298 4.8 8.0 0.00 0.00 0.00 31 1010.3
20260509221848 27 280 6.4 16.1 0.00 0.00 0.00 32 1010.3
20260509221348 27 277 8.0 11.3 0.00 0.00 0.00 31 1010.3
20260509220849 27 305 6.4 9.7 0.00 0.00 0.00 33 1010.3
20260509220349 28 301 4.8 8.0 0.00 0.00 0.00 30 1010.2
20260509215849 28 288 4.8 8.0 0.00 0.00 0.00 30 1010.2
20260509215349 27 271 3.2 4.8 0.00 0.00 0.00 31 1010.2
20260509214848 27 301 4.8 6.4 0.00 0.00 0.00 30 1010.2
20260509214351 27 298 3.2 6.4 0.00 0.00 0.00 31 1010.2
20260509213848 27 300 4.8 8.0 0.00 0.00 0.00 34 1010.2
20260509213348 27 267 6.4 8.0 0.00 0.00 0.00 31 1010.2
20260509212848 27 277 6.4 9.7 0.00 0.00 0.00 34 1010.2
20260509212349 27 305 0.0 3.2 0.00 0.00 0.00 32 1010.3
20260509211848 27 273 3.2 6.4 0.00 0.00 0.00 32 1010.3
20260509211348 27 297 3.2 4.8 0.00 0.00 0.00 35 1010.3
20260509210849 27 312 6.4 8.0 0.00 0.00 0.00 30 1010.4
20260509210348 27 300 6.4 12.9 0.00 0.00 0.00 33 1010.5
20260509205851 27 286 6.4 11.3 0.00 0.00 0.00 35 1010.5
20260509205348 27 294 4.8 6.4 0.00 0.00 0.00 31 1010.5
20260509204851 27 304 8.0 14.5 0.00 0.00 0.00 32 1010.5
20260509204349 27 261 1.6 3.2 0.00 0.00 0.00 30 1010.5
20260509203849 27 216 6.4 6.4 0.00 0.00 0.00 31 1010.5
20260509203348 27 255 6.4 9.7 0.00 0.00 0.00 34 1010.7
20260509202850 27 264 8.0 9.7 0.00 0.00 0.00 31 1010.7
20260509202348 27 292 8.0 14.5 0.00 0.00 0.00 34 1010.8
20260509201848 27 304 3.2 6.4 0.00 0.00 0.00 30 1010.8
20260509201348 27 272 4.8 9.7 0.00 0.00 0.00 33 1010.9
20260509200849 27 286 6.4 11.3 0.00 0.00 0.00 33 1010.9
20260509200349 27 297 3.2 4.8 0.00 0.00 0.00 30 1011.0
20260509195850 27 294 8.0 9.7 0.00 0.00 0.00 35 1011.1
20260509195350 27 288 6.4 9.7 0.00 0.00 0.00 36 1011.2
20260509194848 27 212 4.8 9.7 0.00 0.00 0.00 34 1011.2
20260509194350 27 202 6.4 8.0 0.00 0.00 0.00 33 1011.2
20260509193850 27 289 3.2 6.4 0.00 0.00 0.00 34 1011.2
20260509193348 27 288 6.4 9.7 0.00 0.00 0.00 35 1011.2
20260509192848 27 269 6.4 11.3 0.00 0.00 0.00 33 1011.2
20260509192348 27 259 6.4 11.3 0.00 0.00 0.00 34 1011.3
20260509191848 27 267 6.4 8.0 0.00 0.00 0.00 36 1011.2
20260509191348 27 204 6.4 9.7 0.00 0.00 0.00 34 1011.2